sat.trackr.live / text

‹ back to catalog

STARLINK-32861

NORAD 62870 · 2025-022S

PAYLOAD ACTIVE UNKNOWN

§ Identity

Operator
Country
US
Launch date
2025-02-01
Launch site
AFWTR
Launch vehicle
Mass (kg)
RCS (m²)

Purposes: comms

External: N2YO · Heavens-Above · Gunter

§ Orbital elements

Epoch: 2026-09-21T11:35:59.203968Z

Period
93.85 min
Inclination
53.1605°
Eccentricity
0.0000717
Mean motion
15.34398137 rev/d
Perigee alt
462.2 km
Apogee alt
463.2 km
Semi-major
6,840.8 km
B*
3.6184e-4
RAAN
295.4484°
Arg perigee
64.9795°
Mean anomaly
295.1282°
Rev number
9,194

§ Raw data

STARLINK-328611 62870U 25022S   26264.48332412  .00011868  00000+0  36184-3 0  99992 62870  53.1605 295.4484 0000717  64.9795 295.1282 15.34398137 91942

JSON: /api/v1/satellites/62870 · /tle

For live sub-satellite position, see the globe view (requires WebGL).

§ Visibility from observer

Set your observer location to see the next 7 days of passes ≥ 10°. The values pass through the URL so the page stays shareable.

No JS? Fill the form by hand. The geolocation button needs JavaScript.